Weather in Tsibulev

Ukraine / Cherkassi District     49°04′24″N   29°50′49″E
temp.,
°C
wind,
m/s
gust,
m/s
humid.,
%
clouds,
%
prec.,
mm/h
press.,
hPa
HPBL,
m
24 january, mon
mon2423:00−8nne51194100 0.1 1030429
02:00−9n51295100 0.1 1031369
05:00−8n61394100 0.1 1032466
08:00−9n61595100 0.1 1033438
11:00−7n7138577 0.0 1033548
14:00−6n7138458 0.0 1032610
17:00−7n8159076 0.0 1032496
20:00−8n7149282 0.0 1032442
25 january, tue
tue2523:00−9n6139280 0.0 1032388
02:00−10nnw5129365 0.0 1031318
05:00−10nnw5119472 0.0 1030303
08:00−12nnw399537 0.0 1029209
11:00−8nnw46825 0.0 1028268
14:00−6nw3474100 0.0 1026373
17:00−9w2292100 0.0 102428
20:00−9wsw2591100 0.0 102377
26 january, wed
wed2623:00−6wsw3696100 0.2 1021195
02:00−5sw3596100 0.8 1019179
05:00−4wsw2597100 0.9 1017182
08:00−4nnw31097100 1.4 1018312
11:00−2n6119297 0.1 1019625
14:00−2n61088100 0.3 1020862
17:00−3n51093100 0.1 1022555
20:00−5nnw588999 0.2 1023433
27 january, thu
thu2723:00−11nw359765 0.0 102471
02:00−11wnw3497100 0.0 102479
05:00−12wsw229891 0.0 102335
08:00−10sw3696100 0.0 1021104
11:00−4sw5994100 0.1 1019332
14:00−1wsw5109492 1.1 1017391
17:000wsw51097100 0.1 1016408
20:000wsw51097100 0.2 1015412
28 january, fri
fri2823:000wsw71398100 0.7 1013609
02:00−1sw71596100 1.3 1012571
05:00−1wsw71497100 0.6 1011563
08:000wsw61393100 0.9 1011721
11:00+1wsw6139244 0.0 1011659
14:00+1w7138789 0.1 1010966
17:00+1wsw8167711 0.0 1010802
20:00+1w91590100 0.1 1010997